Regional Weather Roundup
Issued by NWS Jackson, KY

Home | Current Version | Previous Version | Text Only | Print | Product List | Glossary On
Versions: 1 2 3 4 5 6 7 8 9 10 11 12 13 14 15 16 17 18 19 20 21 22 23 24 25 26 27 28 29 30 31 32 33 34 35 36 37 38 39 40 41 42 43 44 45 46 47 48 49 50
000
ASUS43 KJKL 290510
RWRJKL

EAST KENTUCKY HOURLY WEATHER ROUNDUP
NATIONAL WEATHER SERVICE JACKSON KY
100 AM EDT FRI APR 29 2016

NOTE: "FAIR" INDICATES FEW OR NO CLOUDS BELOW 12,000 FEET WITH
NO SIGNIFICANT WEATHER AND/OR OBSTRUCTIONS TO VISIBILITY.

* THESE REPORTS ARE NOT UNDER NWS QUALITY CONTROL AND MAY NOT
  REPORT WEATHER SUCH AS PRECIPITATION AND FOG.

KYZ079-080-083-085-087-088-110-112-115-119-120-290600
...EASTERN KENTUCKY...

CITY           SKY/WX    TMP DP  RH WIND       PRES   REMARKS
JACKSON        CLEAR     65  51  60 W5        29.98R
LONDON         CLEAR     61  54  77 CALM      29.98S
SOMERSET*      CLEAR     55  55 100 CALM      30.01R
MONTICELLO*    CLEAR     55  54  96 NW9       30.02R
WILLIAMSBURG*  CLEAR     57  57 100 CALM      30.00R
MIDDLESBORO*   CLEAR     68  54  60 CALM      29.98R
HARLAN APT*      N/A     57  57 100 CALM      30.00R
HAZARD APT*    CLEAR     66  54  63 CALM      29.98R
BLACK MTN*       N/A     55  52  88 VRB3        N/A
PIKE CO APT*     N/A     63  55  77 W5        29.97S
BIG SANDY APT* CLEAR     63  58  84 W3        29.96S
MOREHEAD APT*  CLEAR     61  48  63 CALM      29.98R
$$

KYZ035-036-041-042-044-050-067-078-099-290600
...CENTRAL KENTUCKY...

CITY           SKY/WX    TMP DP  RH WIND       PRES   REMARKS
MT STERLING*   CLEAR     54  52  94 W6        29.98S
FLEMING/MASON* CLEAR     61  51  68 CALM      29.96S
DANVILLE*      CLEAR     59  50  72 W5        30.00R
RICHMOND*      CLEAR     63  50  63 CALM      29.97S
LEXINGTON      CLEAR     57  48  72 SW6       29.97R
FRANKFORT      CLEAR     56  49  77 CALM      29.96R
LOUISVILLE     CLEAR     64  50  60 NW6       29.97R
LEBANON*         N/A     59  50  72 S3        29.99R
BOWLING GREEN  CLEAR     64  51  62 CALM      29.99R
$$

KYZ091>093-OHZ055-061-077-WVZ005-015-034-035-042-290600
...SOUTHERN OHIO/WEST VIRGINIA...

CITY           SKY/WX    TMP DP  RH WIND       PRES   REMARKS
COVINGTON      CLEAR     58  57  97 N5        29.95R FOG
COLUMBUS       MOCLDY    51  48  89 NE3       29.94S
DAYTON         CLOUDY    51  50  96 N5        29.97S FOG
WILMINGTON     CLEAR     51  50  96 CALM      29.95R FOG
HUNTINGTON       N/A     63  58  83 NW5       29.93R
CHARLESTON       N/A     62  58  86 CALM      29.91R
PINEVILLE*     MOCLDY    57  55  91 MISG      30.01R FOG
BECKLEY        LGT RAIN  59  56  89 W6        29.97R
$$

VAZ002-007-008-TNZ017-027-036-066-071-290600
...SOUTHWEST VIRGINIA/EAST TENNESSEE...

CITY           SKY/WX    TMP DP  RH WIND       PRES   REMARKS
WISE*          MOCLDY    63  48  59 NW9       30.03R
BRISTOL        CLEAR     60  55  83 CALM      29.97R
MORRISTOWN*    CLEAR     68  54  60 NW6       29.97R
SEVIERVILLE*   CLEAR     61  55  82 CALM      29.97R
KNOXVILLE      CLEAR     65  56  72 SW7       29.97R
OAK RIDGE      CLEAR     62  57  83 CALM      29.99R
CROSSVILLE     CLEAR     65  51  60 W6        30.03S
NASHVILLE      CLEAR     68  50  52 W5        30.00R
$$

...KEY TO REMARKS...
VSB - VISIBILITY IN MILES
WCI - WIND CHILL INDEX
HX  - HEAT INDEX

$$



USA.gov is the U.S. government's official web portal to all federal, state and local government web resources and services.